Hourly Data Report for October 31, 2016

All times are specified in Local Standard Time (LST). Add 1 hour to adjust for Daylight Saving Time where and when it is observed.

PENTICTON A
BRITISH COLUMBIA

49°27'45.000" N
119°36'08.000" W
344.40 m
1126146
71889
YYF

Download Data

Hourly Data (October 2016)
Hourly Data Report for October 31, 2016
Temp Definition
°C
Dew Point Temp Definition
°C
Rel Hum Definition
%
Wind Dir Definition
10's deg

Wind Spd Definition
km/h
Visibility Definition
km
Stn Press Definition
kPa
Hmdx Definition


Wind Chill Definition


Weather Definition


TIME
00:00 Legend Double Dagger 7.2 6.6 96 35 7 16.1 96.13     Rain
01:00 Legend Double Dagger 7.2 6.8 97 28 4 16.1 96.15     Rain
02:00 Legend Double Dagger 6.9 6.6 98 2 3 12.9 96.18     Rain
03:00 Legend Double Dagger 6.9 6.6 98 35 4 12.9 96.21     Rain
04:00 Legend Double Dagger 6.9 6.6 98 4 4 16.1 96.24     Cloudy
05:00 Legend Double Dagger 7.0 6.7 98 36 2 16.1 96.30     LegendNANA
06:00 Legend Double Dagger 7.3 6.9 97 36 2 24.1 96.33     Rain
07:00 Legend Double Dagger 8.4 7.0 91 15 12 24.1 96.31     Rain
08:00 Legend Double Dagger 8.6 7.4 92 18 16 24.1 96.37     LegendNANA
09:00 Legend Double Dagger 8.9 7.5 91 17 19 24.1 96.38     LegendNANA
10:00 Legend Double Dagger 9.5 7.8 89 15 20 24.1 96.42     Cloudy
11:00 Legend Double Dagger 10.5 7.2 80 20 29 24.1 96.42     LegendNANA
12:00 Legend Double Dagger 12.0 7.7 75 18 24 24.1 96.36     LegendNANA
13:00 Legend Double Dagger 11.6 7.6 76 19 31 24.1 96.35     Cloudy
14:00 Legend Double Dagger 11.2 7.9 80 19 23 24.1 96.35     Rain
15:00 Legend Double Dagger 11.6 7.2 74 17 25 24.1 96.38     Rain
16:00 Legend Double Dagger 11.3 7.1 75 19 31 24.1 96.40     Mostly Cloudy
17:00 Legend Double Dagger 11.1 6.9 75 19 26 24.1 96.42     LegendNANA
18:00 Legend Double Dagger 11.2 6.6 73 20 17 24.1 96.52     LegendNANA
19:00 Legend Double Dagger 11.3 6.7 73 17 15 24.1 96.57     Mostly Cloudy
20:00 Legend Double Dagger 10.2 7.1 81 16 8 24.1 96.60     LegendNANA
21:00 Legend Double Dagger 10.8 6.2 73 17 11 24.1 96.66     LegendNANA
22:00 Legend Double Dagger 10.5 5.5 71 19 18 24.1 96.69     Cloudy
23:00 Legend Double Dagger 10.6 5.2 69 18 12 24.1 96.72     LegendNANA

Notes on Data Quality.

Legend

  • E = Estimated
  • M = Missing
  • NA = Not Available
  • ‡ = Partner data that is not subject to review by the National Climate Archives
Date modified: